Terminal Aerodrome Forecast
Issued by NWS

Home | Current Version | Previous Version | Text Only | Print | Product List | Glossary On
Versions: 1 2 3 4 5 6 7 8 9 10 11 12 13 14 15 16 17 18
000
FTUS45 KGJT 230856 AAA
TAFCNY
TAF AMD
KCNY 230856Z 2309/2406 28015G25KT P6SM FEW120
     FM231600 29012G22KT P6SM SCT200
     FM240200 30005KT P6SM SKC=

USA.gov is the U.S. government's official web portal to all federal, state and local government web resources and services.